Joplin, MO

2:14 AM CST on December 08, 2016 (GMT -0600)
Joplin Regional

Weather History for KJLN - November, 2011

Change the Weather History Date:

Tuesday, November 22, 2011

  Actual Average Record
Temperature  
Mean Temperature 45 °F 45 °F  
Max Temperature 48 °F 56 °F 77 °F (1955)
Min Temperature 42 °F 35 °F 19 °F (1964)
Degree Days  
Heating Degree Days 20 20  
Month to date heating degree days 300 331  
Since 1 July heating degree days 566 583  
Cooling Degree Days 0 0  
Month to date cooling degree days 1 5  
Year to date cooling degree days 2190 1696  
Moisture  
Dew Point 43 °F    
Average Humidity 93    
Maximum Humidity 100    
Minimum Humidity 86    
Precipitation  
Precipitation 0.43 in 0.12 in 2.03 in (1992)
Month to date precipitation 4.73 2.82  
Year to date precipitation 35.25 42.77  
Snow  
Snow 0.00 in - - ()
Month to date snowfall T  
Snow Depth 0.00 in    
Sea Level Pressure  
Sea Level Pressure 30.02 in    
Wind  
Wind Speed 8 mph (NW)    
Max Wind Speed 17 mph    
Max Gust Speed 22 mph    
Visibility 7 miles    
Events Rain    
T = Trace of Precipitation, MM = Missing Value Source: NWS Daily Summary

Daily Weather History Graph

Daily Weather History Graph

Search for Another Location

Airport or City:

Trip Planner

Search our weather history database for the weather conditions in past years. The results will help you decide how hot, cold, wet, or windy it might be!

Date:

Astronomy

Nov. 22, 2011 Rise Set
Actual Time 7:03 AM CST 5:03 PM CST
Civil Twilight 6:35 AM CST 5:32 PM CST
Nautical Twilight 6:03 AM CST 6:03 PM CST
Astronomical Twilight 5:32 AM CST 6:34 PM CST
Moon 3:58 AM CST (11/22) 3:01 PM CST (11/22)
Length of Visible Light 10h 56m
Length of Day
10h 00m
Waning Crescent, 9% of the Moon is Illuminated
Nov 22
Waning Crescent
Nov 25
New
Dec 2
First Quarter
Dec 10
Full
Dec 17
Last Quarter

Hourly Weather History & Observations

Time (CST) Temp. Windchill Dew Point Humidity Pressure Visibility Wind Dir Wind Speed Gust Speed Precip Events Conditions
12:04 AM 42.8 °F 37.0 °F 42.8 °F 100% 29.94 in 6.0 mi NNE 10.4 mph - 0.01 in Rain Light Rain
12:20 AM 42.8 °F 38.0 °F 42.8 °F 100% 29.94 in 10.0 mi NE 8.1 mph - 0.01 in   Overcast
12:53 AM 43.0 °F 35.4 °F 42.1 °F 97% 29.89 in 10.0 mi East 16.1 mph - 0.01 in Rain Light Rain
1:53 AM 44.1 °F 42.5 °F 43.0 °F 96% 29.92 in 9.0 mi North 3.5 mph - 0.01 in Rain Light Rain
2:23 AM 42.8 °F 37.0 °F 42.8 °F 100% 29.91 in 2.5 mi North 10.4 mph - 0.09 in Rain Rain
2:30 AM 42.8 °F 37.0 °F 42.8 °F 100% 29.90 in 4.0 mi North 10.4 mph - 0.10 in Rain Light Rain
2:53 AM 43.0 °F 36.4 °F 43.0 °F 100% 29.92 in 7.0 mi NNW 12.7 mph - 0.10 in Rain Light Rain
3:22 AM 42.8 °F 36.6 °F 42.8 °F 100% 29.92 in 4.0 mi NNW 11.5 mph - 0.01 in Rain Light Rain
3:40 AM 42.8 °F 37.0 °F 42.8 °F 100% 29.94 in 2.5 mi WNW 10.4 mph - 0.03 in Rain Rain
3:53 AM 43.0 °F 36.8 °F 42.1 °F 97% 29.94 in 1.8 mi NW 11.5 mph - 0.08 in Rain Rain
4:15 AM 42.8 °F 36.6 °F 42.8 °F 100% 29.92 in 3.0 mi NNW 11.5 mph - 0.11 in Rain Rain
4:21 AM 42.8 °F 35.8 °F 42.8 °F 100% 29.92 in 2.5 mi NNW 13.8 mph - 0.15 in Rain Heavy Rain
4:34 AM 42.8 °F 36.2 °F 42.8 °F 100% 29.92 in 8.0 mi NNW 12.7 mph - 0.16 in Rain Light Rain
4:53 AM 43.0 °F 36.4 °F 42.1 °F 97% 29.94 in 10.0 mi NNW 12.7 mph - 0.16 in Rain Light Rain
5:48 AM 42.8 °F 40.1 °F 42.8 °F 100% 29.96 in 2.5 mi NNW 4.6 mph - 0.04 in Rain Light Rain
5:53 AM 43.0 °F 39.5 °F 42.1 °F 97% 29.97 in 2.5 mi NNW 5.8 mph - 0.04 in Rain Light Rain
6:53 AM 43.0 °F 38.8 °F 43.0 °F 100% 29.98 in 4.0 mi NNW 6.9 mph - 0.03 in Rain Light Rain
7:53 AM 44.1 °F 39.5 °F 43.0 °F 96% 29.99 in 10.0 mi North 8.1 mph - 0.01 in   Overcast
8:53 AM 44.1 °F 39.0 °F 43.0 °F 96% 30.01 in 10.0 mi NNW 9.2 mph - N/A   Overcast
9:53 AM 44.6 °F 40.7 °F 44.6 °F 100% 30.02 in 10.0 mi NW 6.9 mph - N/A   Overcast
10:53 AM 45.0 °F 39.7 °F 43.0 °F 93% 30.05 in 10.0 mi NNW 10.4 mph - N/A   Overcast
11:53 AM 46.9 °F - 44.1 °F 90% 30.03 in 10.0 mi NNW 8.1 mph - N/A   Overcast
12:16 PM 46.4 °F 41.9 °F 44.6 °F 93% 30.02 in 10.0 mi NW 9.2 mph - N/A   Overcast
12:29 PM 46.4 °F 41.5 °F 42.8 °F 87% 30.02 in 10.0 mi WNW 10.4 mph - N/A   Overcast
12:53 PM 46.9 °F - 44.1 °F 90% 30.02 in 10.0 mi NW 9.2 mph - N/A   Overcast
1:53 PM 46.0 °F 40.6 °F 43.0 °F 89% 30.03 in 10.0 mi WNW 11.5 mph - N/A   Overcast
2:40 PM 46.4 °F 41.9 °F 42.8 °F 87% 30.03 in 10.0 mi West 9.2 mph - N/A   Overcast
2:53 PM 46.0 °F 41.0 °F 43.0 °F 89% 30.04 in 10.0 mi WNW 10.4 mph - N/A   Overcast
3:53 PM 46.0 °F 41.4 °F 43.0 °F 89% 30.06 in 9.0 mi WNW 9.2 mph - N/A   Overcast
4:53 PM 44.6 °F 40.7 °F 42.8 °F 93% 30.09 in 5.0 mi WNW 6.9 mph - N/A   Overcast
5:53 PM 45.0 °F 40.6 °F 42.1 °F 90% 30.12 in 7.0 mi NW 8.1 mph - N/A   Overcast
6:53 PM 44.6 °F 43.1 °F 42.8 °F 93% 30.11 in 6.0 mi West 3.5 mph - N/A   Overcast
7:53 PM 45.0 °F 43.5 °F 42.1 °F 90% 30.15 in 7.0 mi West 3.5 mph - N/A   Overcast
8:53 PM 45.0 °F 42.6 °F 42.1 °F 90% 30.16 in 7.0 mi West 4.6 mph - N/A   Overcast
9:53 PM 45.0 °F 43.5 °F 42.1 °F 90% 30.18 in 9.0 mi WNW 3.5 mph - N/A   Overcast
10:53 PM 44.1 °F 40.1 °F 42.1 °F 93% 30.21 in 9.0 mi West 6.9 mph - N/A   Overcast
11:06 PM 44.6 °F 41.4 °F 42.8 °F 93% 30.20 in 8.0 mi West 5.8 mph - N/A   Overcast
11:53 PM 43.0 °F 38.8 °F 41.0 °F 93% 30.21 in 7.0 mi West 6.9 mph - N/A   Overcast